Zurück zum Katalog

STARLINK-6185

AktivKommunikationVLEO
NORAD 56901·PAYLOAD·🇺🇸 United States

Gestartet Jun 12, 2023 von Cape Canaveral Space Force Station

Loading…

Nächste Überflüge (nächste 24 Stunden)

TLE

AktuellSource: CelesTrak SupGP

Epoche: Sep 15, 2026, 01:45 UTC

1 56901C 23083AB  26258.07340278  .00021159  00000+0  76621-3 0  2581
2 56901  43.0010  92.3963 0002088 265.0398  49.4308 15.27574433    14

Verfolge STARLINK-6185 in Echtzeit mit AllMySat

Download on the App Store